Regional Weather Roundup
Issued by NWS Little Rock, AR

Home | Current Version | Previous Version | Graphics & Text | Print | Product List | Glossary On
Versions: 1 2 3 4 5 6 7 8 9 10 11 12 13 14 15 16 17 18 19 20 21 22 23 24 25 26 27
000
ASUS44 KLZK 242105
RWRLZK

WEATHER ROUNDUP FOR ARKANSAS
NATIONAL WEATHER SERVICE LITTLE ROCK AR
400 PM CDT FRI OCT 24 2014

NOTE: "FAIR" INDICATES FEW OR NO CLOUDS BELOW 12,000 FEET WITH NO
SIGNIFICANT WEATHER AND/OR OBSTRUCTIONS TO VISIBILITY.

ARZ001-003-010-029-242200-
NORTHWEST ARKANSAS

CITY           SKY/WX    TMP DP  RH WIND       PRES   REMARKS
FAYETTEVILLE   PTSUNNY   72  59  63 SW10      30.08F
FORT SMITH     CLOUDY    76  58  53 S3        30.07F
HARRISON       MOSUNNY   77  59  53 W6        30.08S HAZE
BENTONVILLE    PTSUNNY   73  59  60 SW8       30.08F
ROGERS         PTSUNNY   73  59  61 SW10      30.09S
SILOAM SPGS    CLOUDY    72  57  60 SW8       30.08F
HIGHFILL       PTSUNNY   73  60  63 SW9       30.07F
SPRINGDALE     PTSUNNY   73  61  64 SW9       30.10F
$$

ARZ004-005-016-242200-
NORTH CENTRAL ARKANSAS

CITY           SKY/WX    TMP DP  RH WIND       PRES   REMARKS
BATESVILLE     SUNNY     73  57  56 SW5       30.08S
FLIPPIN        MOSUNNY   73  57  56 SE6       30.07F
MTN HOME       MOSUNNY   73  58  59 CALM      30.07F
$$

ARZ040-041-242200-
WEST CENTRAL ARKANSAS

CITY           SKY/WX    TMP DP  RH WIND       PRES   REMARKS
MENA           PTSUNNY   77  61  57 CALM      30.11S
MOUNT IDA      MOSUNNY   78  60  53 VRB3      30.07F
$$

ARZ009-017-025-026-028-242200-
NORTHEAST ARKANSAS

CITY           SKY/WX    TMP DP  RH WIND       PRES   REMARKS
CORNING        FAIR      72  57  60 W6        30.07F
JONESBORO      SUNNY     73  55  53 W7        30.08S
NEWPORT        MOSUNNY   77  55  46 VRB6      30.08F
WALNUT RIDGE   SUNNY     73  55  53 SW7       30.07S
BLYTHEVILLE    SUNNY     75  55  49 NW8       30.07F
NW BLYTHEVILLE SUNNY     72  55  56 W9        30.07
$$

ARZ022-023-033-042-044-242200-
CENTRAL ARKANSAS

CITY           SKY/WX    TMP DP  RH WIND       PRES   REMARKS
LITTLE ROCK    PTSUNNY   78  52  40 SW5       30.09F
N LITTLE ROCK  PTSUNNY   75  58  55 NW3       30.09F
JACKSONVILLE   SUNNY     77  56  47 S3        30.08F HAZE
SEARCY         SUNNY     76  57  51 VRB5      30.09F
HOT SPRINGS    MOSUNNY   76  57  51 S5        30.09F
RUSSELLVILLE   MOSUNNY   76  57  51 S3        30.08F
$$

ARZ036-242200-
EAST ARKANSAS

CITY           SKY/WX    TMP DP  RH WIND       PRES   REMARKS
WEST MEMPHIS   SUNNY     75  56  51 NW6       30.06F
$$

ARZ050-053-066-070-073-242200-
SOUTHWEST ARKANSAS

CITY           SKY/WX    TMP DP  RH WIND       PRES   REMARKS
ARKADELPHIA    FAIR      77  59  53 VRB6      30.10F
CAMDEN         SUNNY     77  52  41 NE5       30.10F
TEXARKANA      MOSUNNY   77  56  48 CALM      30.10F
EL DORADO      SUNNY     75  53  46 CALM      30.11F
DE QUEEN       PTSUNNY   75  59  57 SW5       30.08F
$$

ARZ056-057-069-242200-
SOUTHEAST ARKANSAS

CITY           SKY/WX    TMP DP  RH WIND       PRES   REMARKS
PINE BLUFF     SUNNY     73  53  49 CALM      30.10F
STUTTGART      SUNNY     77  54  44 W6        30.10F
MONTICELLO     SUNNY     75  54  47 VRB3      30.10S

$$





USA.gov is the U.S. government's official web portal to all federal, state and local government web resources and services.